Weather History for KELN - April, 2014

Change the Weather History Date:

Wednesday, April 16, 2014

  Actual Average (KYKM) Record (KYKM)
Temperature  
Mean Temperature 50 °F 49 °F  
Max Temperature 61 °F 64 °F 82 °F (1949)
Min Temperature 42 °F 34 °F 22 °F (1964)
Degree Days  
Heating Degree Days 14 16  
Month to date heating degree days 276  
Since 1 July heating degree days 5480  
Cooling Degree Days 0 0  
Month to date cooling degree days 0  
Year to date cooling degree days 0  
Moisture  
Dew Point 37 °F    
Average Humidity 63    
Maximum Humidity 79    
Minimum Humidity 45    
Precipitation  
Precipitation 0.00 in 0.02 in 0.14 in (1978)
Month to date precipitation 0.28  
Year to date precipitation 2.82  
Snow  
Snow 0.00 in 0.00 in 0.00 in (2002)
Month to date snowfall 0.0  
Year to date snowfall 8.6  
Since 1 July snowfall 21.6  
Snow Depth -    
Sea Level Pressure  
Sea Level Pressure 30.00 in    
Wind  
Wind Speed 11 mph (WNW)    
Max Wind Speed 16 mph    
Max Gust Speed -    
Visibility 10 miles    
Events Rain    
T = Trace of Precipitation, MM = Missing Value Source: NWS Daily Summary

Daily Weather History Graph

Daily Weather History Graph

Search for Another Location

Airport or City:

Trip Planner

Search our weather history database for the weather conditions in past years. The results will help you decide how hot, cold, wet, or windy it might be!

Date:

Astronomy

Apr. 16, 2014 Rise Set
Actual Time 6:12 AM PDT 7:52 PM PDT
Civil Twilight 5:40 AM PDT 8:24 PM PDT
Nautical Twilight 5:01 AM PDT 9:03 PM PDT
Astronomical Twilight 4:18 AM PDT 9:46 PM PDT
Moon 9:47 PM PDT (4/16) 6:58 AM PDT (4/16)
Length of Visible Light 14h 44m
Length of Day
13h 40m
Full, 98% of the Moon is Illuminated
Apr 16
Full
Apr 22
Last Quarter
Apr 28
New
May 6
First Quarter
May 14
Full

Hourly Weather History & Observations

Time (PDT) Temp. Windchill Dew Point Humidity Pressure Visibility Wind Dir Wind Speed Gust Speed Precip Events Conditions
12:53 AM 45.0 °F 38.5 °F 35.1 °F 68% 30.04 in 10.0 mi NW 13.8 mph - N/A   Mostly Cloudy
1:53 AM 45.0 °F 40.1 °F 34.0 °F 65% 30.03 in 10.0 mi WNW 9.2 mph - N/A   Mostly Cloudy
2:53 AM 43.0 °F 37.2 °F 34.0 °F 71% 30.01 in 10.0 mi WNW 10.4 mph - N/A   Clear
3:53 AM 43.0 °F 36.8 °F 35.1 °F 74% 30.02 in 10.0 mi West 11.5 mph - N/A   Scattered Clouds
4:53 AM 43.0 °F 37.2 °F 36.0 °F 76% 30.03 in 10.0 mi West 10.4 mph - N/A   Overcast
5:53 AM 42.1 °F 35.7 °F 35.1 °F 76% 30.03 in 10.0 mi WNW 11.5 mph - N/A   Partly Cloudy
6:53 AM 42.1 °F 37.1 °F 36.0 °F 79% 30.03 in 10.0 mi West 8.1 mph - N/A   Partly Cloudy
7:53 AM 45.0 °F 40.1 °F 37.0 °F 74% 30.03 in 10.0 mi West 9.2 mph - N/A   Scattered Clouds
8:53 AM 48.9 °F - 37.0 °F 64% 30.03 in 10.0 mi WNW 11.5 mph - N/A   Overcast
9:53 AM 50.0 °F - 37.0 °F 61% 30.03 in 10.0 mi WNW 13.8 mph - N/A   Overcast
10:53 AM 54.0 °F - 37.0 °F 53% 30.02 in 10.0 mi WNW 10.4 mph - N/A   Overcast
11:53 AM 55.9 °F - 35.1 °F 45% 30.03 in 10.0 mi NW 8.1 mph - N/A   Overcast
12:53 PM 57.0 °F - 37.0 °F 47% 30.01 in 10.0 mi NNW 8.1 mph - N/A   Overcast
1:53 PM 59.0 °F - 37.9 °F 46% 30.00 in 10.0 mi WNW 8.1 mph - N/A   Overcast
2:53 PM 59.0 °F - 37.9 °F 46% 29.99 in 10.0 mi NW 11.5 mph - N/A   Overcast
3:53 PM 57.9 °F - 39.0 °F 49% 29.99 in 10.0 mi WNW 12.7 mph - N/A   Overcast
4:53 PM 57.9 °F - 39.0 °F 49% 29.98 in 10.0 mi WNW 12.7 mph - 0.00 in   Overcast
5:53 PM 55.0 °F - 42.1 °F 62% 29.98 in 10.0 mi NNW 16.1 mph - 0.00 in Rain Light Rain
6:53 PM 54.0 °F - 39.9 °F 59% 29.97 in 10.0 mi NW 15.0 mph - 0.00 in   Overcast
7:53 PM 50.0 °F - 39.9 °F 68% 29.96 in 10.0 mi WNW 10.4 mph - N/A   Overcast
8:53 PM 48.9 °F - 39.0 °F 69% 29.96 in 10.0 mi WNW 10.4 mph - N/A   Overcast
9:53 PM 48.9 °F - 39.0 °F 69% 29.96 in 10.0 mi WNW 15.0 mph - N/A   Overcast
10:53 PM 48.0 °F - 39.0 °F 71% 29.94 in 10.0 mi West 11.5 mph - N/A   Overcast
11:53 PM 48.0 °F - 39.0 °F 71% 29.93 in 10.0 mi WNW 9.2 mph - N/A   Overcast